Location: Staunton
(38.1490°N, 79.0720°W)
Time: 23:48:01
(UTC-05:00)

ISS - Pass Details

Date: 06 December 2019
Orbit: 411 x 421 km, 51.6° (Epoch: 15 December)

Event Time Altitude Azimuth Distance (km) Brightness Sun altitude
Rises 18:37:46 0° 316° (NW) 2,359 0.5 -19.4°
Reaches altitude 10° 18:40:04 10° 329° (NNW) 1,496 -0.8 -19.9°
Enters shadow 18:41:30 20° 348° (NNW) 1,046 -1.8 -20.1°
